Miscellaneous Local Product
Issued by NWS North Platte, NE

Home | Current Version | Previous Version | Graphics & Text | Print | Product List | Glossary On
Versions: 1 2 3 4 5 6 7 8 9 10 11 12 13 14 15 16 17 18 19 20 21 22 23 24 25 26 27 28 29 30 31 32 33 34 35 36 37 38 39 40 41 42 43 44 45 46 47 48 49 50
000
AXUS43 KLBF 010210
MISLBF


WESTERN AND NORTH CENTRAL NEBRASKA HOURLY WEATHER ROUNDUP
NATIONAL WEATHER SERVICE NORTH PLATTE NE
900 PM CDT TUE JUN 30 2015

***STATIONS NOT REPORTING VARIABLES SUCH AS SKY/WEATHER OR
PRESSURE ARE PROVIDED BY THE NEBRASKA DEPARTMENT OF
ROADS...RAWS...AND APRS NETWORKS...AND ARE NOT UNDER
NATIONAL WEATHER SERVICE QUALITY CONTROL***

...OBSERVATIONS IN AND NEAR THE EASTERN PANHANDLE OF NEBRASKA...

CITY           SKY/WX    TMP DP  RH WIND       PRES   REMARKS
PINE RIDGE     CLEAR     78  65  63 E6        29.90R
CHADRON        MOCLDY    80  70  71 NE8       29.89R
ALLIANCE       PTCLDY    81  63  54 N10G21    29.92R
SIDNEY         PTCLDY    78  63  59 W5        29.97R
WHITECLAY        N/A     80  66  61 CALM        N/A
CRESCENT LAKE    N/A     88  49  25 CALM        N/A
BIG SPRINGS      N/A     87  69  54 SW3         N/A  HX  91
$$

...OBSERVATIONS IN NORTH CENTRAL NEBRASKA...

CITY           SKY/WX    TMP DP  RH WIND       PRES   REMARKS
VALENTINE      CLOUDY    74  65  73 E12       29.87S
ORD            CLOUDY    74  62  66 E10       29.85R
BROKEN BOW     MOCLDY    80  71  74 E9        29.85R
VALENTINE NWR    N/A     78  68  70 E12         N/A
SPRINGVIEW       N/A     73  63  72 E9          N/A
HALSEY           N/A     83  68  59 NE3         N/A
BREWSTER         N/A     80  72  75 E12         N/A
ROSE             N/A     84  78  82 E17         N/A  HX  95
NEWPORT          N/A     72  64  78 E8          N/A
SARGENT          N/A     76  67  75 E6          N/A
CHAMBERS         N/A     71  64  78 E6          N/A
EWING            N/A     71  65  81 E7          N/A
$$

...OBSERVATIONS IN SOUTHWEST NEBRASKA AND FAR NORTHEAST COLORADO...

CITY           SKY/WX    TMP DP  RH WIND       PRES   REMARKS
WRAY           FAIR      89  54  30 SW5       29.91R
HOLYOKE        FAIR      88  59  37 CALM      29.92R
IMPERIAL       PTCLDY    86  65  49 S3        29.87R
NORTH PLATTE   PTCLDY    82  70  66 E5        29.83S
MCCOOK         PTCLDY    91  58  32 E6        29.82S HX  90
PAXTON           N/A     88  70  54 CALM        N/A  HX  92
GOTHENBURG       N/A     84  62  47 CALM        N/A
CALLAWAY         N/A     81  71  71 SE6         N/A
$$

...NORTH PLATTE AREA...

CITY           SKY/WX    TMP DP  RH WIND       PRES   REMARKS
AIRPORT        PTCLDY    82  70  66 E5        29.83S
DOWNTOWN         N/A     90  66  44 CALM        N/A  HX  92
HILLCREST        N/A     88  63  43 SE3         N/A
$$

...SOME WEATHER OBSERVATIONS FROM AROUND THE REGION...

CITY           SKY/WX    TMP DP  RH WIND       PRES   REMARKS
DENVER         LGT RAIN  80  50  34 W22G31    30.11R
LARAMIE        CLOUDY    66  56  70 N10       30.29R
CHEYENNE       CLOUDY    68  54  60 W17       30.14R
SCOTTSBLUFF    PTCLDY    85  60  42 N9        29.93R
RAPID CITY     CLEAR     77  69  76 E6        29.89S
PIERRE         CLOUDY    72  65  78 SE9       29.83R
WINNER         FAIR      74  61  63 E16       29.86S
SIOUX FALLS    CLOUDY    70  67  90 CALM      29.89F
OMAHA          CLOUDY    73  67  81 CALM      29.89S
GRAND ISLAND   CLOUDY    77  65  66 E13       29.86R
KANSAS CITY    CLOUDY    81  65  58 SE9       29.88F
WICHITA        MOCLDY    84  59  42 S8        29.85S
HAYS           PTCLDY    93  52  24 S10       29.83S HX  90
LIBERAL        CLEAR     84  50  30 S12       29.95S
GOODLAND       PTCLDY    84  51  31 S7        29.92S
$$



USA.gov is the U.S. government's official web portal to all federal, state and local government web resources and services.